FW7249 Weather Reports


Display with metric or nautical units.
time (UTC)temp
F
wind
direction
speed
MPH
gust
MPH
rain 1hr
in
rain 24hr
in
rain mn
in
humidity
%
barometer
mb
20260506061509 67 283 0.0 1.0 0.00 0.00 0.00 53 1011.8
20260506044502 67 221 0.0 0.0 0.00 0.00 0.00 50 1011.9
20260506043101 67 177 0.0 2.0 0.00 0.00 0.00 49 1012.0
20260506041601 68 127 0.0 0.0 0.00 0.00 0.00 47 1011.9
20260506040053 68 249 0.0 0.0 0.00 0.00 0.00 47 1011.7
20260506034607 69 250 0.0 1.0 0.00 0.00 0.00 47 1011.8
20260506033052 69 206 0.0 1.0 0.00 0.00 0.00 47 1012.0
20260506031552 68 162 0.0 1.0 0.00 0.00 0.00 47 1012.2
20260506030051 68 224 0.0 1.0 0.00 0.00 0.00 48 1012.2
20260506024607 68 231 0.0 0.0 0.00 0.00 0.00 47 1012.1
20260506023049 68 277 0.0 0.0 0.00 0.00 0.00 47 1011.9
20260506021552 68 263 0.0 0.0 0.00 0.00 0.00 45 1011.7
20260506020051 68 188 0.0 0.0 0.00 0.00 0.00 46 1011.8
20260506014550 67 245 0.0 0.0 0.00 0.00 0.00 47 1011.8
20260506013101 68 245 0.0 0.0 0.00 0.00 0.00 45 1011.7
20260506011600 69 245 0.0 0.0 0.00 0.00 0.00 44 1011.4
20260506010046 70 245 0.0 0.0 0.00 0.00 0.00 41 1011.5
20260506004544 71 229 0.0 0.0 0.00 0.00 0.00 40 1011.8
20260506003045 72 228 0.0 0.0 0.00 0.00 0.00 38 1011.5
20260506001545 73 228 0.0 0.0 0.00 0.00 0.00 36 1011.4
20260506000043 74 248 0.0 1.0 0.00 0.00 0.00 35 1011.5
20260505234542 75 288 0.0 0.0 0.00 0.00 0.00 35 1011.4
20260505233040 75 114 0.0 1.0 0.00 0.00 0.00 36 1011.3
20260505231541 76 268 0.0 5.0 0.00 0.00 0.00 34 1011.2
20260505230051 77 47 0.0 0.0 0.00 0.00 0.00 34 1011.4
20260505224538 77 203 0.0 0.0 0.00 0.00 0.00 34 1011.2
20260505223047 79 298 0.0 0.0 0.00 0.00 0.00 31 1011.3
20260505221537 82 223 0.0 5.0 0.00 0.00 0.00 28 1011.2
20260505220038 83 144 0.0 5.0 0.00 0.00 0.00 28 1011.1
20260505214530 82 201 0.0 8.0 0.00 0.00 0.00 27 1011.1
20260505213042 82 113 0.0 1.0 0.00 0.00 0.00 29 1011.5
20260505211528 81 124 0.0 4.0 0.00 0.00 0.00 29 1011.5
20260505210026 81 128 1.0 12.0 0.00 0.00 0.00 28 1011.6
20260505204523 81 188 0.0 4.0 0.00 0.00 0.00 28 1011.7
20260505203025 80 184 0.0 7.0 0.00 0.00 0.00 29 1011.9
20260505201517 80 79 0.0 1.0 0.00 0.00 0.00 30 1012.1
20260505200026 80 328 0.0 0.0 0.00 0.00 0.00 30 1012.4
20260505194510 78 166 0.0 8.0 0.00 0.00 0.00 32 1012.7
20260505193010 78 245 0.0 7.0 0.00 0.00 0.00 33 1012.7
20260505191508 78 50 0.0 8.0 0.00 0.00 0.00 35 1012.8
20260505190006 78 120 0.0 4.0 0.00 0.00 0.00 34 1013.0
20260505184505 78 157 0.0 2.0 0.00 0.00 0.00 33 1013.1
20260505183004 77 157 0.0 3.0 0.00 0.00 0.00 35 1013.3
20260505181505 78 178 0.0 6.0 0.00 0.00 0.00 32 1013.7
20260505180002 78 257 0.0 6.0 0.00 0.00 0.00 32 1013.9
20260505174600 77 183 0.0 3.0 0.00 0.00 0.00 33 1014.1
20260505173100 77 162 0.0 11.0 0.00 0.00 0.00 33 1014.1
20260505171557 77 289 0.0 2.0 0.00 0.00 0.00 33 1014.2
20260505170055 77 214 0.0 2.0 0.00 0.00 0.00 37 1014.2
20260505164600 76 221 0.0 9.0 0.00 0.00 0.00 34 1014.2
20260505163056 77 161 0.0 4.0 0.00 0.00 0.00 36 1014.3
20260505161550 76 259 0.0 1.0 0.00 0.00 0.00 36 1014.5
20260505153104 75 151 0.0 4.0 0.00 0.00 0.00 35 1014.5
20260505151553 74 226 1.0 10.0 0.00 0.00 0.00 37 1014.6
20260505124525 64 216 0.0 0.0 0.00 0.00 0.00 59 1014.1
20260505123018 64 216 0.0 1.0 0.00 0.00 0.00 56 1013.9
20260505121516 64 216 0.0 0.0 0.00 0.00 0.00 57 1014.0
20260505120011 60 224 0.0 0.0 0.00 0.00 0.00 63 1014.1
20260505114507 55 224 0.0 0.0 0.00 0.00 0.00 74 1013.7
20260505113005 51 224 0.0 0.0 0.00 0.00 0.00 77 1013.5
20260505111507 51 224 0.0 0.0 0.00 0.00 0.00 76 1013.3
20260505101603 53 224 0.0 0.0 0.00 0.00 0.00 69 1013.3
20260505100056 53 224 0.0 0.0 0.00 0.00 0.00 68 1013.5
20260505094558 53 259 0.0 0.0 0.00 0.00 0.00 68 1013.2
20260505093052 54 259 0.0 0.0 0.00 0.00 0.00 65 1013.1
20260505091557 54 259 0.0 0.0 0.00 0.00 0.00 64 1013.3
20260505090057 54 259 0.0 0.0 0.00 0.00 0.00 63 1013.5
20260505084550 54 259 0.0 0.0 0.00 0.00 0.00 62 1013.5
20260505083050 54 259 0.0 0.0 0.00 0.00 0.00 64 1013.5
20260505081558 53 259 0.0 0.0 0.00 0.00 0.00 65 1013.5
20260505080049 54 259 0.0 0.0 0.00 0.00 0.00 66 1013.4
20260505074604 54 259 0.0 0.0 0.00 0.00 0.00 65 1013.3
20260505073049 53 259 0.0 0.0 0.00 0.00 0.00 67 1013.3
20260505071542 54 259 0.0 0.0 0.00 0.00 0.00 67 1013.3